This is the latest recevied weather packets stored in our database for station/object W1HVD. If no packets are shown the sender has not sent any weather packets the latest 10 day(s).
| Time | Temp. | Humidity | Pressure | Rain* | Wind** | Luminosity | Snow |
|---|---|---|---|---|---|---|---|
| 1778150907 | 8.89° C | 99% | 1007.7 hPa | 0 mm | - | 22 W/m² | - |
| 1778150603 | 8.89° C | 99% | 1007.2 hPa | 1.27 mm | - | 22 W/m² | - |
| 1778150299 | 8.89° C | 99% | 1007.6 hPa | 1.27 mm | - | 17 W/m² | - |
| 1778149996 | 8.89° C | 99% | 1007.5 hPa | 0 mm | - | 14 W/m² | - |
| 1778149692 | 8.89° C | 99% | 1008 hPa | 1.78 mm | - | 12 W/m² | - |
| 1778149389 | 8.89° C | 99% | 1007.9 hPa | 1.78 mm | - | 9 W/m² | - |
| 1778149085 | 8.89° C | 99% | 1007.8 hPa | 1.27 mm | - | 9 W/m² | - |
| 1778148785 | 8.89° C | 99% | 1007.8 hPa | 1.27 mm | - | 8 W/m² | - |
| 1778148482 | 8.89° C | 99% | 1008 hPa | 0 mm | - | 4 W/m² | - |
| 1778148180 | 8.89° C | 99% | 1007.8 hPa | 1.78 mm | - | 2 W/m² | - |
| 1778147878 | 8.89° C | 99% | 1007.6 hPa | 1.78 mm | - | 3 W/m² | - |
| 1778147574 | 8.89° C | 99% | 1007.8 hPa | 0 mm | - | 3 W/m² | - |
| 1778147271 | 9.44° C | 99% | 1007.4 hPa | 0 mm | - | 2 W/m² | - |
| 1778146968 | 9.44° C | 99% | 1007.4 hPa | 0 mm | - | 1 W/m² | - |
| 1778146665 | 9.44° C | 99% | 1007.6 hPa | 1.27 mm | - | 1 W/m² | - |
| 1778146364 | 10° C | 99% | 1007.3 hPa | 1.27 mm | - | 1 W/m² | - |
| 1778146061 | 10° C | 99% | 1007.1 hPa | 1.78 mm | - | 0 W/m² | - |
| 1778145757 | 10.56° C | 99% | 1007.2 hPa | 1.78 mm | - | 0 W/m² | - |
| 1778145454 | 10.56° C | 99% | 1007 hPa | 0 mm | - | 0 W/m² | - |
| 1778145150 | 10.56° C | 99% | 1007.6 hPa | 1.27 mm | - | 0 W/m² | - |
| 1778144846 | 10.56° C | 99% | 1007.5 hPa | 1.27 mm | - | 0 W/m² | - |
| 1778144542 | 10.56° C | 99% | 1007.3 hPa | 1.27 mm | - | 0 W/m² | - |
| 1778144240 | 10.56° C | 99% | 1007 hPa | 0 mm | - | 0 W/m² | - |
| 1778143936 | 10.56° C | 99% | 1006.9 hPa | 0 mm | - | 0 W/m² | - |
| 1778143633 | 10.56° C | 99% | 1006.9 hPa | 1.78 mm | - | 0 W/m² | - |
* Rain latest hour (hover to see other rain measurements)
** Current wind speed in m/s (hover to see current wind gust speed)